Lake Louise, Alberta

2:25 AM MDT on April 21, 2018 (GMT -0600)
Lake Louise

Weather History for 71786 - January, 2014

Change the Weather History Date:

Wednesday, January 15, 2014

  Actual Average Record
Temperature  
Mean Temperature 28 °F -  
Max Temperature 34 °F - - ()
Min Temperature 21 °F - - ()
Degree Days  
Heating Degree Days 38    
Moisture  
Dew Point 27 °F    
Average Humidity 92    
Maximum Humidity 100    
Minimum Humidity 81    
Precipitation  
Precipitation 0.00 in - - ()
Sea Level Pressure  
Sea Level Pressure 30.29 in    
Wind  
Wind Speed 15 mph ()    
Max Wind Speed 25 mph    
Max Gust Speed 38 mph    
T = Trace of Precipitation, MM = Missing Value Source: Averaged Metar Reports

Daily Weather History Graph

Daily Weather History Graph

Search for Another Location

Airport or City:

Astronomy

Jan. 15, 2014 Rise Set
Actual Time 8:43 AM MST 5:06 PM MST
Civil Twilight 8:05 AM MST 5:44 PM MST
Nautical Twilight 7:23 AM MST 6:26 PM MST
Astronomical Twilight 6:43 AM MST 7:06 PM MST
Moon 5:15 PM MST (1/15) 7:56 AM MST (1/15)
Length of Visible Light 9h 39m
Length of Day
8h 22m
Full, 100% of the Moon is Illuminated
Jan 15
Full
Jan 15
Full
Jan 23
Last Quarter
Jan 30
New
Feb 6
First Quarter

Hourly Weather History & Observations

Time (MST) Temp. Windchill Dew Point Humidity Pressure Visibility Wind Dir Wind Speed Gust Speed Precip Events Conditions
12:00 AM 24.1 °F 8.0 °F 23.4 °F 97% 30.19 in - West 25.3 mph 33.4 mph N/A   Unknown
1:00 AM 24.8 °F 10.7 °F 24.1 °F 97% 30.19 in - WSW 19.6 mph 25.3 mph N/A   Unknown
2:00 AM 24.8 °F 11.9 °F 24.1 °F 97% 30.23 in - WSW 16.1 mph - N/A   Unknown
3:00 AM 25.3 °F 14.7 °F 24.8 °F 98% 30.24 in - WSW 11.5 mph - N/A   Unknown
4:00 AM 27.7 °F 16.6 °F 27.7 °F 100% 30.22 in - WSW 13.8 mph - N/A   Unknown
5:00 AM 29 °F - 28 °F 95% 30.24 in - WSW 13.8 mph - -  
5:00 AM 28.6 °F 17.7 °F 28.0 °F 98% 30.24 in - WSW 13.8 mph - N/A   Unknown
6:00 AM 30.0 °F 18.3 °F 28.8 °F 95% 30.22 in - WSW 17.3 mph 26.5 mph N/A   Unknown
7:00 AM 29.5 °F 16.8 °F 28.2 °F 95% 30.19 in - West 19.6 mph 25.3 mph N/A   Unknown
8:00 AM 28.9 °F 16.9 °F 27.9 °F 96% 30.19 in - West 17.3 mph - N/A   Unknown
9:00 AM 29.8 °F 18.9 °F 28.4 °F 94% 30.21 in - West 15.0 mph 21.9 mph N/A   Unknown
10:00 AM 30.6 °F 18.2 °F 28.6 °F 92% 30.23 in - WSW 19.6 mph 28.8 mph N/A   Unknown
11:00 AM 31 °F - 28 °F 84% 30.23 in - WSW 20.7 mph - -  
11:00 AM 31.5 °F 19.1 °F 28.0 °F 87% 30.23 in - WSW 20.7 mph 31.1 mph N/A   Unknown
12:00 PM 34.2 °F 22.3 °F 28.9 °F 81% 30.21 in - WSW 21.9 mph 38.0 mph N/A   Unknown
1:00 PM 31.3 °F 19.9 °F 27.9 °F 87% 30.22 in - West 17.3 mph 26.5 mph N/A   Unknown
2:00 PM 31.6 °F 20.4 °F 27.1 °F 83% 30.24 in - WSW 17.3 mph 26.5 mph N/A   Unknown
3:00 PM 31.8 °F 19.9 °F 29.3 °F 90% 30.27 in - WSW 19.6 mph 31.1 mph N/A   Unknown
4:00 PM 30.6 °F 20.7 °F 27.3 °F 88% 30.32 in - WSW 12.7 mph - N/A   Unknown
5:00 PM 30 °F - 27 °F 83% 30.35 in - WSW 11.5 mph - -  
5:00 PM 29.7 °F 20.1 °F 26.8 °F 89% 30.35 in - WSW 11.5 mph 19.6 mph N/A   Unknown
6:00 PM 28.8 °F 19.0 °F 26.4 °F 91% 30.38 in - West 11.5 mph - N/A   Unknown
7:00 PM 28.4 °F 17.0 °F 25.9 °F 90% 30.40 in - West 15.0 mph - N/A   Unknown
8:00 PM 27.3 °F 15.6 °F 24.8 °F 90% 30.42 in - WSW 15.0 mph 21.9 mph N/A   Unknown
9:00 PM 27.1 °F 16.4 °F 24.6 °F 90% 30.43 in - WSW 12.7 mph 18.4 mph N/A   Unknown
10:00 PM 26.6 °F 15.7 °F 25.2 °F 94% 30.45 in - WSW 12.7 mph 19.6 mph N/A   Unknown
11:00 PM 27 °F - 25 °F 90% 30.45 in - West 13.8 mph - -  
11:00 PM 27.1 °F 15.9 °F 25.2 °F 92% 30.45 in - West 13.8 mph 21.9 mph N/A   Unknown